Time,TemperatureF,DewpointF,PressureIn,WindDirection,WindDirectionDegrees,WindSpeedMPH,WindSpeedGustMPH,Humidity,HourlyPrecipIn,Conditions,Clouds,dailyrainin,SoftwareType,DateUTC
2013-08-09 00:04:00,82.0,75.0,30.00,ESE,121,1.0,-999.0,80,-99.99,,,0.00,weatherlink.com 1.10,2013-08-09 04:04:00,
2013-08-09 00:19:00,81.7,75.0,30.00,SSE,154,0.0,-999.0,80,-99.99,,,0.00,weatherlink.com 1.10,2013-08-09 04:19:00,
2013-08-09 00:34:00,81.7,75.0,30.00,ESE,117,1.0,-999.0,79,-99.99,,,0.00,weatherlink.com 1.10,2013-08-09 04:34:00,
2013-08-09 00:49:00,81.4,75.0,30.00,ESE,121,0.0,-999.0,80,-99.99,,,0.00,weatherlink.com 1.10,2013-08-09 04:49:00,
2013-08-09 01:04:00,81.4,74.0,30.00,SE,144,0.0,-999.0,78,-99.99,,,0.00,weatherlink.com 1.10,2013-08-09 05:04:00,
2013-08-09 01:19:00,81.2,74.0,29.99,SSE,157,1.0,-999.0,79,-99.99,,,0.00,weatherlink.com 1.10,2013-08-09 05:19:00,
2013-08-09 01:34:00,81.4,75.0,29.98,ESE,106,0.0,-999.0,80,-99.99,,,0.00,weatherlink.com 1.10,2013-08-09 05:34:00,
2013-08-09 01:49:00,81.5,75.0,29.98,ESE,114,4.0,-999.0,81,-99.99,,,0.00,weatherlink.com 1.10,2013-08-09 05:49:00,
2013-08-09 02:04:00,81.5,75.0,29.98,ESE,106,1.0,-999.0,81,-99.99,,,0.00,weatherlink.com 1.10,2013-08-09 06:04:00,
2013-08-09 02:19:00,81.6,75.0,29.98,ESE,109,2.0,-999.0,80,-99.99,,,0.00,weatherlink.com 1.10,2013-08-09 06:19:00,
2013-08-09 02:34:00,81.5,75.0,29.98,ESE,121,2.0,-999.0,80,-99.99,,,0.00,weatherlink.com 1.10,2013-08-09 06:34:00,
2013-08-09 02:49:00,81.5,75.0,29.98,ESE,122,0.0,-999.0,80,-99.99,,,0.00,weatherlink.com 1.10,2013-08-09 06:49:00,
2013-08-09 03:04:00,81.4,75.0,29.97,SE,136,0.0,-999.0,81,-99.99,,,0.00,weatherlink.com 1.10,2013-08-09 07:04:00,
2013-08-09 03:20:00,81.2,75.0,29.96,SE,124,2.0,-999.0,81,-99.99,,,0.00,weatherlink.com 1.10,2013-08-09 07:20:00,
2013-08-09 03:35:00,80.9,75.0,29.95,ESE,115,0.0,-999.0,81,-99.99,,,0.00,weatherlink.com 1.10,2013-08-09 07:35:00,
2013-08-09 03:50:00,80.9,75.0,29.95,SE,138,0.0,-999.0,82,-99.99,,,0.00,weatherlink.com 1.10,2013-08-09 07:50:00,
2013-08-09 04:05:00,80.8,75.0,29.95,ESE,114,2.0,-999.0,82,-99.99,,,0.00,weatherlink.com 1.10,2013-08-09 08:05:00,
2013-08-09 04:20:00,80.8,75.0,29.94,SE,141,0.0,-999.0,83,-99.99,,,0.00,weatherlink.com 1.10,2013-08-09 08:20:00,
2013-08-09 04:35:00,80.9,75.0,29.95,East,95,0.0,-999.0,83,-99.99,,,0.00,weatherlink.com 1.10,2013-08-09 08:35:00,
2013-08-09 04:50:00,81.3,75.0,29.95,South,175,1.0,-999.0,82,-99.99,,,0.00,weatherlink.com 1.10,2013-08-09 08:50:00,
2013-08-09 05:05:00,81.4,75.0,29.96,ESE,110,6.0,-999.0,81,-99.99,,,0.00,weatherlink.com 1.10,2013-08-09 09:05:00,
2013-08-09 05:20:00,81.3,75.0,29.95,SE,140,1.0,-999.0,82,-99.99,,,0.00,weatherlink.com 1.10,2013-08-09 09:20:00,
2013-08-09 05:35:00,80.6,74.0,29.95,SE,144,2.0,-999.0,81,-99.99,,,0.00,weatherlink.com 1.10,2013-08-09 09:35:00,
2013-08-09 05:50:00,79.1,74.0,29.95,SSE,148,0.0,-999.0,83,-99.99,,,0.00,weatherlink.com 1.10,2013-08-09 09:50:00,
2013-08-09 06:05:00,78.6,74.0,29.95,ESE,115,0.0,-999.0,86,-99.99,,,0.00,weatherlink.com 1.10,2013-08-09 10:05:00,
2013-08-09 06:20:00,78.3,74.0,29.95,SE,137,0.0,-999.0,87,-99.99,,,0.00,weatherlink.com 1.10,2013-08-09 10:20:00,
2013-08-09 06:35:00,78.5,74.0,29.95,SE,134,0.0,-999.0,87,-99.99,,,0.00,weatherlink.com 1.10,2013-08-09 10:35:00,
2013-08-09 06:50:00,78.7,75.0,29.95,ESE,120,0.0,-999.0,87,-99.99,,,0.00,weatherlink.com 1.10,2013-08-09 10:50:00,
2013-08-09 07:05:00,79.0,75.0,29.96,SE,130,1.0,-999.0,88,-99.99,,,0.00,weatherlink.com 1.10,2013-08-09 11:05:00,
2013-08-09 07:20:00,79.3,75.0,29.97,ESE,120,0.0,-999.0,87,-99.99,,,0.00,weatherlink.com 1.10,2013-08-09 11:20:00,
2013-08-09 07:35:00,79.5,75.0,29.97,SSE,148,0.0,-999.0,87,-99.99,,,0.00,weatherlink.com 1.10,2013-08-09 11:35:00,
2013-08-09 07:50:00,80.4,76.0,29.97,SE,143,1.0,-999.0,85,-99.99,,,0.00,weatherlink.com 1.10,2013-08-09 11:50:00,
2013-08-09 08:05:00,82.3,77.0,29.97,SSE,150,2.0,-999.0,83,-99.99,,,0.00,weatherlink.com 1.10,2013-08-09 12:05:00,
2013-08-09 08:20:00,83.6,77.0,29.98,East,101,2.0,-999.0,80,-99.99,,,0.00,weatherlink.com 1.10,2013-08-09 12:20:00,
2013-08-09 08:35:00,84.6,76.0,29.98,SE,141,1.0,-999.0,76,-99.99,,,0.00,weatherlink.com 1.10,2013-08-09 12:35:00,
2013-08-09 08:50:00,85.0,77.0,29.99,SE,144,5.0,-999.0,76,-99.99,,,0.00,weatherlink.com 1.10,2013-08-09 12:50:00,
2013-08-09 09:05:00,85.4,77.0,30.00,ENE,78,1.0,-999.0,76,-99.99,,,0.00,weatherlink.com 1.10,2013-08-09 13:05:00,
2013-08-09 09:20:00,86.0,77.0,29.99,ESE,107,1.0,-999.0,75,-99.99,,,0.00,weatherlink.com 1.10,2013-08-09 13:20:00,
2013-08-09 09:35:00,86.3,76.0,30.00,NE,53,10.0,-999.0,72,-99.99,,,0.00,weatherlink.com 1.10,2013-08-09 13:35:00,
2013-08-09 09:50:00,86.5,77.0,30.00,ESE,121,2.0,-999.0,73,-99.99,,,0.00,weatherlink.com 1.10,2013-08-09 13:50:00,
2013-08-09 10:05:00,87.4,77.0,30.01,NNE,23,1.0,-999.0,72,-99.99,,,0.00,weatherlink.com 1.10,2013-08-09 14:05:00,
2013-08-09 10:20:00,87.5,77.0,30.01,NE,42,5.0,-999.0,70,-99.99,,,0.00,weatherlink.com 1.10,2013-08-09 14:20:00,
2013-08-09 10:35:00,88.1,76.0,30.02,SE,131,4.0,-999.0,68,-99.99,,,0.00,weatherlink.com 1.10,2013-08-09 14:35:00,
2013-08-09 10:50:00,87.6,78.0,30.02,SE,134,2.0,-999.0,72,-99.99,,,0.00,weatherlink.com 1.10,2013-08-09 14:50:00,
2013-08-09 11:05:00,87.6,77.0,30.01,East,92,2.0,-999.0,70,-99.99,,,0.00,weatherlink.com 1.10,2013-08-09 15:05:00,
2013-08-09 11:20:00,88.9,77.0,30.01,SSE,149,5.0,-999.0,67,-99.99,,,0.00,weatherlink.com 1.10,2013-08-09 15:20:00,
2013-08-09 11:35:00,89.2,76.0,30.01,ESE,109,7.0,-999.0,65,-99.99,,,0.00,weatherlink.com 1.10,2013-08-09 15:35:00,
2013-08-09 11:50:00,89.6,76.0,30.01,East,98,4.0,-999.0,64,-99.99,,,0.00,weatherlink.com 1.10,2013-08-09 15:50:00,
2013-08-09 12:05:00,89.7,77.0,30.01,SE,137,5.0,-999.0,66,-99.99,,,0.00,weatherlink.com 1.10,2013-08-09 16:05:00,
2013-08-09 12:20:00,87.0,73.0,30.02,South,191,3.0,-999.0,64,-99.99,,,0.00,weatherlink.com 1.10,2013-08-09 16:20:00,
2013-08-09 12:35:00,83.1,77.0,30.02,SE,128,0.0,-999.0,82,-99.99,,,0.10,weatherlink.com 1.10,2013-08-09 16:35:00,
2013-08-09 12:50:00,83.1,76.0,30.02,SSE,154,5.0,-999.0,78,-99.99,,,0.10,weatherlink.com 1.10,2013-08-09 16:50:00,
2013-08-09 13:05:00,83.4,77.0,30.02,SSE,167,4.0,-999.0,82,-99.99,,,0.10,weatherlink.com 1.10,2013-08-09 17:05:00,
2013-08-09 13:20:00,82.9,76.0,30.03,ESE,123,2.0,-999.0,80,-99.99,,,0.10,weatherlink.com 1.10,2013-08-09 17:20:00,
2013-08-09 13:35:00,84.0,77.0,30.04,SSE,150,13.0,-999.0,80,-99.99,,,0.10,weatherlink.com 1.10,2013-08-09 17:35:00,
2013-08-09 13:50:00,83.6,77.0,30.05,SSE,148,6.0,-999.0,81,-99.99,,,0.10,weatherlink.com 1.10,2013-08-09 17:50:00,
2013-08-09 14:05:00,82.8,77.0,30.04,SSE,157,8.0,-999.0,83,-99.99,,,0.10,weatherlink.com 1.10,2013-08-09 18:05:00,
2013-08-09 14:21:00,82.2,75.0,30.04,ESE,117,12.0,-999.0,79,-99.99,,,0.10,weatherlink.com 1.10,2013-08-09 18:21:00,
2013-08-09 14:36:00,82.3,76.0,30.03,SSW,202,7.0,-999.0,80,-99.99,,,0.10,weatherlink.com 1.10,2013-08-09 18:36:00,
2013-08-09 14:51:00,82.9,76.0,30.02,ESE,111,8.0,-999.0,80,-99.99,,,0.10,weatherlink.com 1.10,2013-08-09 18:51:00,
2013-08-09 15:06:00,83.2,76.0,30.01,SSE,165,1.0,-999.0,78,-99.99,,,0.10,weatherlink.com 1.10,2013-08-09 19:06:00,
2013-08-09 15:21:00,85.0,74.0,30.00,South,172,7.0,-999.0,70,-99.99,,,0.10,weatherlink.com 1.10,2013-08-09 19:21:00,
2013-08-09 15:36:00,85.3,75.0,30.00,SE,144,5.0,-999.0,70,-99.99,,,0.10,weatherlink.com 1.10,2013-08-09 19:36:00,
2013-08-09 15:51:00,85.2,74.0,30.00,South,187,4.0,-999.0,69,-99.99,,,0.10,weatherlink.com 1.10,2013-08-09 19:51:00,
2013-08-09 16:06:00,85.6,76.0,29.99,East,93,5.0,-999.0,72,-99.99,,,0.10,weatherlink.com 1.10,2013-08-09 20:06:00,
2013-08-09 16:21:00,85.5,75.0,29.99,ESE,121,5.0,-999.0,71,-99.99,,,0.10,weatherlink.com 1.10,2013-08-09 20:21:00,
2013-08-09 16:36:00,85.8,74.0,30.00,SW,230,6.0,-999.0,68,-99.99,,,0.10,weatherlink.com 1.10,2013-08-09 20:36:00,
2013-08-09 16:51:00,85.9,75.0,30.00,ESE,109,6.0,-999.0,69,-99.99,,,0.10,weatherlink.com 1.10,2013-08-09 20:51:00,
2013-08-09 17:06:00,84.9,75.0,30.00,East,92,6.0,-999.0,71,-99.99,,,0.10,weatherlink.com 1.10,2013-08-09 21:06:00,
2013-08-09 17:21:00,83.5,74.0,30.00,ESE,108,5.0,-999.0,72,-99.99,,,0.10,weatherlink.com 1.10,2013-08-09 21:21:00,
2013-08-09 17:36:00,84.8,75.0,30.00,SW,227,9.0,-999.0,72,-99.99,,,0.10,weatherlink.com 1.10,2013-08-09 21:36:00,
2013-08-09 17:51:00,85.0,73.0,29.99,SE,130,5.0,-999.0,68,-99.99,,,0.10,weatherlink.com 1.10,2013-08-09 21:51:00,
2013-08-09 18:06:00,84.9,74.0,30.00,East,93,2.0,-999.0,70,-99.99,,,0.10,weatherlink.com 1.10,2013-08-09 22:06:00,
2013-08-09 18:21:00,84.1,72.0,30.00,SSW,192,2.0,-999.0,66,-99.99,,,0.10,weatherlink.com 1.10,2013-08-09 22:21:00,
2013-08-09 18:36:00,83.6,72.0,30.00,SE,138,2.0,-999.0,67,-99.99,,,0.10,weatherlink.com 1.10,2013-08-09 22:36:00,
2013-08-09 18:51:00,83.5,72.0,30.00,ESE,115,4.0,-999.0,68,-99.99,,,0.10,weatherlink.com 1.10,2013-08-09 22:51:00,
2013-08-09 19:06:00,83.3,71.0,30.00,SSW,196,1.0,-999.0,67,-99.99,,,0.10,weatherlink.com 1.10,2013-08-09 23:06:00,
2013-08-09 19:21:00,83.3,71.0,30.00,SE,146,1.0,-999.0,67,-99.99,,,0.10,weatherlink.com 1.10,2013-08-09 23:21:00,
2013-08-09 19:36:00,83.3,72.0,30.01,ESE,103,6.0,-999.0,68,-99.99,,,0.10,weatherlink.com 1.10,2013-08-09 23:36:00,
2013-08-09 19:51:00,82.6,73.0,30.01,South,169,2.0,-999.0,72,-99.99,,,0.10,weatherlink.com 1.10,2013-08-09 23:51:00,
2013-08-09 20:06:00,82.0,73.0,30.02,SSE,150,2.0,-999.0,75,-99.99,,,0.10,weatherlink.com 1.10,2013-08-10 00:06:00,
2013-08-09 20:21:00,81.7,72.0,30.03,SE,141,1.0,-999.0,73,-99.99,,,0.10,weatherlink.com 1.10,2013-08-10 00:21:00,
2013-08-09 20:36:00,81.6,73.0,30.04,SE,129,2.0,-999.0,75,-99.99,,,0.10,weatherlink.com 1.10,2013-08-10 00:36:00,
2013-08-09 20:51:00,81.5,74.0,30.03,SE,137,1.0,-999.0,78,-99.99,,,0.10,weatherlink.com 1.10,2013-08-10 00:51:00,
2013-08-09 21:06:00,81.2,74.0,30.03,East,94,1.0,-999.0,79,-99.99,,,0.10,weatherlink.com 1.10,2013-08-10 01:06:00,
2013-08-09 21:21:00,80.9,74.0,30.03,SSE,155,1.0,-999.0,80,-99.99,,,0.10,weatherlink.com 1.10,2013-08-10 01:21:00,
2013-08-09 21:36:00,80.5,74.0,30.04,SE,135,0.0,-999.0,81,-99.99,,,0.10,weatherlink.com 1.10,2013-08-10 01:36:00,
2013-08-09 21:51:00,80.3,74.0,30.05,SSE,167,0.0,-999.0,82,-99.99,,,0.10,weatherlink.com 1.10,2013-08-10 01:51:00,
2013-08-09 22:06:00,80.1,75.0,30.05,ESE,111,0.0,-999.0,83,-99.99,,,0.10,weatherlink.com 1.10,2013-08-10 02:06:00,
2013-08-09 22:21:00,80.0,75.0,30.05,ESE,121,0.0,-999.0,84,-99.99,,,0.10,weatherlink.com 1.10,2013-08-10 02:21:00,
2013-08-09 22:36:00,79.9,75.0,30.05,ESE,118,0.0,-999.0,84,-99.99,,,0.10,weatherlink.com 1.10,2013-08-10 02:36:00,
2013-08-09 22:51:00,79.8,75.0,30.05,ESE,107,0.0,-999.0,85,-99.99,,,0.10,weatherlink.com 1.10,2013-08-10 02:51:00,
2013-08-09 23:06:00,79.9,75.0,30.05,East,94,1.0,-999.0,85,-99.99,,,0.10,weatherlink.com 1.10,2013-08-10 03:06:00,
2013-08-09 23:21:00,80.3,74.0,30.05,ESE,115,2.0,-999.0,82,-99.99,,,0.10,weatherlink.com 1.10,2013-08-10 03:21:00,
2013-08-09 23:36:00,80.7,74.0,30.05,SE,134,4.0,-999.0,81,-99.99,,,0.10,weatherlink.com 1.10,2013-08-10 03:36:00,
2013-08-09 23:51:00,80.5,75.0,30.05,ESE,105,0.0,-999.0,82,-99.99,,,0.10,weatherlink.com 1.10,2013-08-10 03:51:00,